EW8307 Weather Reports


time (UTC)temp
C
wind
direction
speed
KPH
gust
KPH
rain 1hr
cm
rain 24hr
cm
rain mn
cm
humidity
%
barometer
mb
20260507191542 16 309 8.0 19.3 0.00 0.00 0.00 32 1002.3
20260507190037 17 39 3.2 12.9 0.00 0.00 0.00 33 1002.7
20260507184534 16 279 1.6 16.1 0.00 0.00 0.00 36 1002.7
20260507183038 16 297 3.2 14.5 0.00 0.03 0.00 35 1002.8
20260507181532 16 360 1.6 9.7 0.00 0.03 0.00 35 1003.0
20260507180045 16 300 3.2 16.1 0.00 0.03 0.00 37 1003.3
20260507174532 16 172 4.8 16.1 0.00 0.03 0.00 36 1003.3
20260507173035 16 316 4.8 14.5 0.00 0.03 0.00 37 1003.3
20260507171527 15 292 3.2 19.3 0.00 0.03 0.00 35 1003.2
20260507170043 15 226 1.6 17.7 0.00 0.03 0.00 39 1003.3
20260507164524 15 330 3.2 9.7 0.00 0.03 0.00 39 1003.5
20260507163023 14 346 6.4 14.5 0.00 0.03 0.00 41 1003.7
20260507161521 14 306 3.2 9.7 0.00 0.03 0.00 44 1003.8
20260507160021 14 277 4.8 16.1 0.00 0.03 0.00 43 1003.9
20260507154519 14 251 1.6 8.0 0.00 0.03 0.00 47 1004.0
20260507153017 13 128 4.8 17.7 0.00 0.03 0.00 44 1004.1
20260507151517 13 304 3.2 16.1 0.00 0.03 0.00 44 1004.2
20260507150013 13 355 8.0 20.9 0.00 0.03 0.00 42 1004.4
20260507144510 13 360 3.2 14.5 0.00 0.03 0.00 46 1004.4
20260507143009 12 304 1.6 14.5 0.00 0.03 0.00 49 1004.4
20260507141506 12 303 3.2 14.5 0.00 0.03 0.00 59 1004.6
20260507140007 12 318 1.6 12.9 0.00 0.03 0.00 66 1004.5
20260507134501 12 180 1.6 12.9 0.00 0.03 0.00 68 1004.2
20260507133059 11 340 3.2 9.7 0.00 0.03 0.00 72 1004.3
20260507131557 11 290 3.2 12.9 0.00 0.03 0.00 71 1004.4
20260507130104 11 300 0.0 9.7 0.00 0.03 0.00 77 1004.3
20260507124559 11 289 3.2 8.0 0.00 0.03 0.00 75 1004.4
20260507123057 10 288 1.6 12.9 0.00 0.03 0.00 77 1004.4
20260507121557 10 234 0.0 14.5 0.00 0.03 0.00 79 1004.6
20260507120052 9 295 0.0 12.9 0.00 0.03 0.00 81 1004.5
20260507114550 8 289 0.0 6.4 0.00 0.03 0.00 84 1004.2
20260507113050 8 290 1.6 11.3 0.00 0.03 0.00 85 1004.4
20260507111548 8 279 0.0 6.4 0.00 0.03 0.00 88 1004.1
20260507110057 8 279 0.0 3.2 0.00 0.03 0.00 90 1004.1
20260507104552 8 279 0.0 1.6 0.00 0.03 0.00 91 1003.8
20260507103112 8 279 0.0 4.8 0.00 0.03 0.00 92 1004.0
20260507101546 8 280 0.0 0.0 0.00 0.03 0.00 92 1003.8
20260507100059 8 280 0.0 0.0 0.00 0.03 0.00 92 1003.4
20260507094548 8 280 0.0 0.0 0.00 0.03 0.00 92 1003.2
20260507093044 8 280 0.0 4.8 0.00 0.03 0.00 91 1003.2
20260507091545 8 280 0.0 3.2 0.00 0.03 0.00 91 1003.2
20260507090050 8 280 0.0 1.6 0.00 0.03 0.00 90 1003.5
20260507084546 8 280 0.0 1.6 0.00 0.03 0.00 90 1003.9
20260507083043 8 280 0.0 3.2 0.00 0.03 0.00 90 1003.9
20260507081538 8 280 0.0 4.8 0.00 0.03 0.00 89 1003.7
20260507080044 8 280 0.0 1.6 0.00 0.03 0.00 89 1003.6
20260507074536 9 280 0.0 4.8 0.00 0.03 0.00 88 1003.5
20260507073039 9 279 0.0 4.8 0.00 0.03 0.00 86 1003.5
20260507071531 10 277 0.0 6.4 0.00 0.03 0.00 82 1003.2
20260507070037 10 278 0.0 8.0 0.00 0.03 0.00 81 1003.2
20260507064528 10 277 0.0 4.8 0.00 0.03 0.00 81 1002.8
20260507063027 10 276 1.6 6.4 0.00 0.03 0.00 81 1002.8
20260507061525 10 276 1.6 16.1 0.00 0.03 0.00 82 1003.1
20260507060024 11 305 0.0 1.6 0.00 0.03 0.00 86 1003.1
20260507054521 11 305 0.0 4.8 0.00 0.03 0.00 86 1003.0
20260507053018 11 312 0.0 4.8 0.00 0.03 0.03 84 1003.3
20260507051516 11 312 1.6 6.4 0.00 0.03 0.03 83 1003.4
20260507050034 12 341 1.6 12.9 0.00 0.03 0.03 86 1003.1
20260507044513 12 312 0.0 4.8 0.00 0.03 0.03 89 1002.9
20260507043012 12 318 0.0 6.4 0.00 0.03 0.03 89 1003.1
20260507041512 12 318 1.6 8.0 0.00 0.03 0.03 88 1003.0
20260507040009 13 321 1.6 9.7 0.00 0.03 0.03 88 1003.0
20260507034507 13 321 0.0 3.2 0.00 0.03 0.03 88 1003.3
20260507033005 13 322 1.6 9.7 0.00 0.03 0.03 86 1002.9
20260507031505 14 328 3.2 14.5 0.00 0.03 0.03 86 1002.8
20260507030005 14 323 0.0 12.9 0.00 0.03 0.03 93 1002.3
20260507024504 14 148 0.0 4.8 0.00 0.03 0.03 95 1002.3
20260507023004 14 129 0.0 11.3 0.00 0.03 0.03 95 1002.1
20260507021503 13 211 0.0 8.0 0.00 0.03 0.03 95 1002.1
20260507020004 13 208 0.0 8.0 0.00 0.03 0.03 95 1002.1
20260507014504 13 207 1.6 6.4 0.00 0.03 0.03 95 1002.2
20260507013003 13 188 0.0 6.4 0.00 0.03 0.03 95 1002.1
20260507011503 13 225 3.2 11.3 0.00 0.03 0.03 94 1002.1
20260507010002 14 230 1.6 12.9 0.00 0.03 0.03 94 1002.2
20260507004504 14 217 0.0 9.7 0.00 0.03 0.03 94 1002.2
20260507003001 13 207 0.0 8.0 0.00 0.03 0.03 94 1002.2
20260507001501 13 258 1.6 11.3 0.00 0.03 0.03 94 1002.1
20260507000004 13 222 0.0 9.7 0.00 0.03 0.03 94 1002.1
20260506234501 14 187 0.0 8.0 0.00 0.03 0.03 94 1001.6
20260506233000 14 229 1.6 9.7 0.00 0.03 0.03 94 1001.8
20260506231601 14 160 0.0 3.2 0.00 0.03 0.03 94 1001.7
20260506230001 14 160 0.0 8.0 0.00 0.03 0.03 94 1001.6
20260506224601 14 157 0.0 8.0 0.00 0.03 0.03 94 1001.6
20260506223105 14 119 0.0 6.4 0.00 0.03 0.03 94 1001.7
20260506221604 14 185 0.0 6.4 0.00 0.03 0.03 93 1001.9
20260506214601 14 195 1.6 9.7 0.00 0.03 0.03 93 1002.2
20260506213100 15 150 0.0 8.0 0.00 0.03 0.03 92 1002.3
20260506211557 15 234 0.0 6.4 0.00 0.03 0.03 92 1002.4
20260506204556 15 160 0.0 12.9 0.00 0.03 0.03 91 1002.5
20260506203053 15 177 0.0 8.0 0.00 0.03 0.03 91 1002.7
20260506201552 15 177 1.6 11.3 0.00 0.03 0.03 91 1002.6
20260506194552 15 220 0.0 8.0 0.00 0.03 0.03 90 1002.8
20260506193055 15 191 1.6 11.3 0.00 0.03 0.03 89 1002.8